Time,TemperatureF,DewpointF,PressureIn,WindDirection,WindDirectionDegrees,WindSpeedMPH,WindSpeedGustMPH,Humidity,HourlyPrecipIn,Conditions,Clouds,dailyrainin,SoftwareType,DateUTC
2013-08-08 00:04:00,60.1,57.0,30.08,South,191,0.0,0.0,90,0.00,,,0.00,weatherlink.com 1.10,2013-08-08 04:04:00,
2013-08-08 00:18:00,60.5,57.0,30.08,SSW,192,0.0,0.0,88,0.00,,,0.00,weatherlink.com 1.10,2013-08-08 04:18:00,
2013-08-08 00:33:00,61.2,58.0,30.08,South,191,0.0,0.0,88,0.00,,,0.00,weatherlink.com 1.10,2013-08-08 04:33:00,
2013-08-08 00:48:00,61.9,58.0,30.07,South,169,0.0,1.0,88,0.00,,,0.00,weatherlink.com 1.10,2013-08-08 04:48:00,
2013-08-08 01:03:00,62.3,58.0,30.07,South,185,0.0,3.0,87,0.00,,,0.00,weatherlink.com 1.10,2013-08-08 05:03:00,
2013-08-08 01:18:00,62.5,59.0,30.07,South,184,0.0,1.0,87,0.00,,,0.00,weatherlink.com 1.10,2013-08-08 05:18:00,
2013-08-08 01:33:00,62.5,59.0,30.06,SSE,166,1.0,1.0,87,0.00,,,0.00,weatherlink.com 1.10,2013-08-08 05:33:00,
2013-08-08 01:48:00,62.6,58.0,30.06,SSE,165,0.0,2.0,86,0.00,,,0.00,weatherlink.com 1.10,2013-08-08 05:48:00,
2013-08-08 02:03:00,62.8,59.0,30.06,SSE,166,0.0,1.0,86,0.00,,,0.00,weatherlink.com 1.10,2013-08-08 06:03:00,
2013-08-08 02:18:00,62.9,59.0,30.06,SE,141,0.0,1.0,86,0.00,,,0.00,weatherlink.com 1.10,2013-08-08 06:18:00,
2013-08-08 02:33:00,63.0,59.0,30.05,SSE,160,0.0,2.0,85,0.00,,,0.00,weatherlink.com 1.10,2013-08-08 06:33:00,
2013-08-08 02:48:00,63.1,59.0,30.05,South,173,0.0,1.0,85,0.00,,,0.00,weatherlink.com 1.10,2013-08-08 06:48:00,
2013-08-08 03:03:00,63.0,59.0,30.05,SSW,203,0.0,1.0,85,0.00,,,0.00,weatherlink.com 1.10,2013-08-08 07:03:00,
2013-08-08 03:18:00,63.1,59.0,30.05,South,177,0.0,2.0,85,0.00,,,0.00,weatherlink.com 1.10,2013-08-08 07:18:00,
2013-08-08 03:33:00,63.1,59.0,30.05,SSW,193,0.0,2.0,86,0.00,,,0.00,weatherlink.com 1.10,2013-08-08 07:33:00,
2013-08-08 03:48:00,63.0,59.0,30.04,SE,132,1.0,1.0,86,0.00,,,0.00,weatherlink.com 1.10,2013-08-08 07:48:00,
2013-08-08 04:04:00,63.0,59.0,30.04,SE,143,1.0,2.0,86,0.00,,,0.00,weatherlink.com 1.10,2013-08-08 08:04:00,
2013-08-08 04:19:00,63.0,59.0,30.03,South,169,0.0,1.0,87,0.00,,,0.00,weatherlink.com 1.10,2013-08-08 08:19:00,
2013-08-08 04:34:00,62.9,59.0,30.03,SSE,162,0.0,2.0,88,0.00,,,0.00,weatherlink.com 1.10,2013-08-08 08:34:00,
2013-08-08 04:49:00,62.9,59.0,30.02,SSE,167,0.0,2.0,88,0.00,,,0.00,weatherlink.com 1.10,2013-08-08 08:49:00,
2013-08-08 05:04:00,62.8,60.0,30.02,SSE,167,0.0,1.0,89,0.00,,,0.00,weatherlink.com 1.10,2013-08-08 09:04:00,
2013-08-08 05:19:00,62.8,60.0,30.03,South,183,0.0,1.0,89,0.00,,,0.00,weatherlink.com 1.10,2013-08-08 09:19:00,
2013-08-08 05:34:00,62.8,60.0,30.02,SSE,161,1.0,2.0,89,0.00,,,0.00,weatherlink.com 1.10,2013-08-08 09:34:00,
2013-08-08 05:49:00,62.7,60.0,30.02,South,176,0.0,1.0,90,0.00,,,0.00,weatherlink.com 1.10,2013-08-08 09:49:00,
2013-08-08 06:04:00,62.6,60.0,30.01,South,181,0.0,1.0,90,0.00,,,0.00,weatherlink.com 1.10,2013-08-08 10:04:00,
2013-08-08 06:19:00,62.5,60.0,30.02,South,181,0.0,0.0,90,0.00,,,0.00,weatherlink.com 1.10,2013-08-08 10:19:00,
2013-08-08 06:34:00,62.4,60.0,30.03,South,180,0.0,0.0,91,0.00,,,0.00,weatherlink.com 1.10,2013-08-08 10:34:00,
2013-08-08 06:49:00,62.5,60.0,30.03,South,181,0.0,0.0,92,0.00,,,0.00,weatherlink.com 1.10,2013-08-08 10:49:00,
2013-08-08 07:04:00,62.7,60.0,30.03,South,181,0.0,0.0,91,0.00,,,0.00,weatherlink.com 1.10,2013-08-08 11:04:00,
2013-08-08 07:19:00,62.9,61.0,30.03,South,181,0.0,0.0,92,0.00,,,0.00,weatherlink.com 1.10,2013-08-08 11:19:00,
2013-08-08 07:34:00,63.0,61.0,30.03,South,181,0.0,0.0,92,0.00,,,0.00,weatherlink.com 1.10,2013-08-08 11:34:00,
2013-08-08 07:49:00,63.1,61.0,30.03,South,177,0.0,0.0,92,0.00,,,0.00,weatherlink.com 1.10,2013-08-08 11:49:00,
2013-08-08 08:04:00,63.4,61.0,30.03,South,176,0.0,0.0,92,0.00,,,0.00,weatherlink.com 1.10,2013-08-08 12:04:00,
2013-08-08 08:19:00,64.1,62.0,30.02,South,179,0.0,3.0,93,0.00,,,0.00,weatherlink.com 1.10,2013-08-08 12:19:00,
2013-08-08 08:34:00,65.0,63.0,30.03,SSW,210,1.0,3.0,93,0.00,,,0.00,weatherlink.com 1.10,2013-08-08 12:34:00,
2013-08-08 08:49:00,65.7,64.0,30.02,SW,221,0.0,1.0,93,0.00,,,0.00,weatherlink.com 1.10,2013-08-08 12:49:00,
2013-08-08 09:04:00,66.0,64.0,30.03,SSE,153,0.0,3.0,93,0.00,,,0.00,weatherlink.com 1.10,2013-08-08 13:04:00,
2013-08-08 09:19:00,66.5,65.0,30.02,SE,145,0.0,4.0,93,0.00,,,0.00,weatherlink.com 1.10,2013-08-08 13:19:00,
2013-08-08 09:34:00,66.9,65.0,30.02,SSE,160,1.0,3.0,92,0.00,,,0.00,weatherlink.com 1.10,2013-08-08 13:34:00,
2013-08-08 09:49:00,67.6,65.0,30.03,SW,226,1.0,3.0,92,0.00,,,0.00,weatherlink.com 1.10,2013-08-08 13:49:00,
2013-08-08 10:04:00,68.6,66.0,30.02,West,264,0.0,3.0,91,0.00,,,0.00,weatherlink.com 1.10,2013-08-08 14:04:00,
2013-08-08 10:19:00,70.0,67.0,30.02,South,185,0.0,4.0,89,0.00,,,0.00,weatherlink.com 1.10,2013-08-08 14:19:00,
2013-08-08 10:34:00,71.1,67.0,30.02,SW,219,1.0,3.0,88,0.00,,,0.00,weatherlink.com 1.10,2013-08-08 14:34:00,
2013-08-08 10:49:00,72.9,68.0,30.01,NNW,343,0.0,4.0,85,0.00,,,0.00,weatherlink.com 1.10,2013-08-08 14:49:00,
2013-08-08 11:04:00,74.8,69.0,30.01,WNW,287,0.0,5.0,83,0.00,,,0.00,weatherlink.com 1.10,2013-08-08 15:04:00,
2013-08-08 11:19:00,75.1,69.0,30.00,WSW,243,0.0,4.0,82,0.00,,,0.00,weatherlink.com 1.10,2013-08-08 15:19:00,
2013-08-08 11:35:00,75.5,69.0,30.00,SSE,155,0.0,6.0,80,0.00,,,0.00,weatherlink.com 1.10,2013-08-08 15:35:00,
2013-08-08 11:50:00,75.9,70.0,30.00,SE,128,0.0,7.0,81,0.00,,,0.00,weatherlink.com 1.10,2013-08-08 15:50:00,
2013-08-08 12:05:00,75.6,69.0,30.00,SSW,207,1.0,3.0,80,0.00,,,0.00,weatherlink.com 1.10,2013-08-08 16:05:00,
2013-08-08 12:20:00,75.0,69.0,30.00,SE,133,0.0,2.0,81,0.00,,,0.00,weatherlink.com 1.10,2013-08-08 16:20:00,
2013-08-08 12:35:00,74.9,69.0,30.00,SE,131,2.0,3.0,82,0.00,,,0.00,weatherlink.com 1.10,2013-08-08 16:35:00,
2013-08-08 12:50:00,75.9,70.0,30.00,SW,218,1.0,3.0,81,0.00,,,0.00,weatherlink.com 1.10,2013-08-08 16:50:00,
2013-08-08 13:05:00,77.2,70.0,30.00,SE,126,0.0,3.0,79,0.00,,,0.00,weatherlink.com 1.10,2013-08-08 17:05:00,
2013-08-08 13:20:00,79.0,70.0,30.00,ESE,102,1.0,2.0,75,0.00,,,0.00,weatherlink.com 1.10,2013-08-08 17:20:00,
2013-08-08 13:35:00,78.0,70.0,30.00,East,96,1.0,2.0,76,0.00,,,0.00,weatherlink.com 1.10,2013-08-08 17:35:00,
2013-08-08 13:50:00,77.2,70.0,29.98,WSW,238,2.0,3.0,78,0.00,,,0.00,weatherlink.com 1.10,2013-08-08 17:50:00,
2013-08-08 14:05:00,77.5,70.0,29.98,WSW,240,0.0,4.0,78,0.00,,,0.00,weatherlink.com 1.10,2013-08-08 18:05:00,
2013-08-08 14:20:00,79.1,71.0,29.98,SSW,207,3.0,3.0,76,0.00,,,0.00,weatherlink.com 1.10,2013-08-08 18:20:00,
2013-08-08 14:35:00,79.2,70.0,29.98,SSE,155,0.0,4.0,74,0.00,,,0.00,weatherlink.com 1.10,2013-08-08 18:35:00,
2013-08-08 14:50:00,80.1,70.0,29.98,South,177,1.0,4.0,72,0.00,,,0.00,weatherlink.com 1.10,2013-08-08 18:50:00,
2013-08-08 15:05:00,80.4,70.0,29.98,SSE,152,1.0,6.0,71,0.00,,,0.00,weatherlink.com 1.10,2013-08-08 19:05:00,
2013-08-08 15:20:00,80.1,70.0,29.98,SSE,148,2.0,7.0,72,0.00,,,0.00,weatherlink.com 1.10,2013-08-08 19:20:00,
2013-08-08 15:35:00,79.8,70.0,29.98,WNW,288,1.0,5.0,73,0.00,,,0.00,weatherlink.com 1.10,2013-08-08 19:35:00,
2013-08-08 15:50:00,79.7,71.0,29.97,SW,228,1.0,4.0,74,0.00,,,0.00,weatherlink.com 1.10,2013-08-08 19:50:00,
2013-08-08 16:05:00,79.3,71.0,29.97,SW,218,0.0,3.0,75,0.00,,,0.00,weatherlink.com 1.10,2013-08-08 20:05:00,
2013-08-08 16:20:00,78.7,70.0,29.97,SSW,210,1.0,3.0,75,0.00,,,0.00,weatherlink.com 1.10,2013-08-08 20:20:00,
2013-08-08 16:35:00,78.1,70.0,29.97,South,174,0.0,2.0,76,0.00,,,0.00,weatherlink.com 1.10,2013-08-08 20:35:00,
2013-08-08 16:51:00,78.0,70.0,29.97,SSE,160,1.0,3.0,76,0.00,,,0.00,weatherlink.com 1.10,2013-08-08 20:51:00,
2013-08-08 17:05:00,77.6,70.0,29.97,ESE,121,0.0,3.0,78,0.00,,,0.00,weatherlink.com 1.10,2013-08-08 21:05:00,
2013-08-08 17:20:00,77.4,70.0,29.97,SSE,150,0.0,1.0,78,0.00,,,0.00,weatherlink.com 1.10,2013-08-08 21:20:00,
2013-08-08 17:50:00,77.6,70.0,29.96,SW,215,0.0,2.0,77,0.00,,,0.00,weatherlink.com 1.10,2013-08-08 21:50:00,
2013-08-08 18:05:00,77.1,69.0,29.96,SSW,207,1.0,3.0,77,0.00,,,0.00,weatherlink.com 1.10,2013-08-08 22:05:00,
2013-08-08 18:35:00,76.0,70.0,29.96,SSE,153,0.0,2.0,81,0.00,,,0.00,weatherlink.com 1.10,2013-08-08 22:35:00,
2013-08-08 18:50:00,75.5,70.0,29.96,SW,232,0.0,2.0,82,0.00,,,0.00,weatherlink.com 1.10,2013-08-08 22:50:00,
2013-08-08 19:05:00,74.9,70.0,29.96,SW,232,0.0,0.0,84,0.00,,,0.00,weatherlink.com 1.10,2013-08-08 23:05:00,
2013-08-08 19:20:00,74.3,70.0,29.96,SW,232,0.0,0.0,86,0.00,,,0.00,weatherlink.com 1.10,2013-08-08 23:20:00,
2013-08-08 19:35:00,73.8,70.0,29.96,SW,232,0.0,0.0,87,0.00,,,0.00,weatherlink.com 1.10,2013-08-08 23:35:00,
2013-08-08 19:50:00,73.6,70.0,29.97,WSW,240,0.0,1.0,87,0.00,,,0.00,weatherlink.com 1.10,2013-08-08 23:50:00,
2013-08-08 20:05:00,73.2,70.0,29.97,WSW,240,0.0,1.0,88,0.00,,,0.00,weatherlink.com 1.10,2013-08-09 00:05:00,
2013-08-08 20:20:00,72.8,70.0,29.97,WSW,241,0.0,0.0,89,0.00,,,0.00,weatherlink.com 1.10,2013-08-09 00:20:00,
2013-08-08 20:36:00,72.4,69.0,29.97,WSW,240,0.0,0.0,90,0.00,,,0.00,weatherlink.com 1.10,2013-08-09 00:36:00,
2013-08-08 20:51:00,71.8,69.0,29.98,WSW,240,0.0,0.0,91,0.00,,,0.00,weatherlink.com 1.10,2013-08-09 00:51:00,
2013-08-08 21:36:00,70.4,69.0,29.98,WSW,240,0.0,0.0,94,0.00,,,0.00,weatherlink.com 1.10,2013-08-09 01:36:00,
2013-08-08 21:51:00,70.2,69.0,29.98,WSW,240,0.0,0.0,95,0.00,,,0.00,weatherlink.com 1.10,2013-08-09 01:51:00,
2013-08-08 22:21:00,70.3,69.0,29.98,WSW,240,0.0,0.0,96,0.00,,,0.00,weatherlink.com 1.10,2013-08-09 02:21:00,
2013-08-08 22:51:00,70.7,70.0,29.97,WSW,240,0.0,1.0,96,0.00,,,0.00,weatherlink.com 1.10,2013-08-09 02:51:00,
2013-08-08 23:21:00,70.6,70.0,29.97,SW,220,0.0,2.0,96,0.00,,,0.00,weatherlink.com 1.10,2013-08-09 03:21:00,
2013-08-08 23:36:00,70.8,70.0,29.97,SSW,193,0.0,1.0,96,0.00,,,0.00,weatherlink.com 1.10,2013-08-09 03:36:00,